Wind_Speed
15 14 13 12 11 10 10 9 8 8 8 8 9 9 8 8 8 8 8 8 8 8 8 9 9 9 9 9 9 10 10 10 11 11 11 11 11 11 11 11 11 11 11
16 15 14 13 12 12 11 10 10 10 10 10 11 10 10 10 10 10 10 9 9 9 10 10 10 10 10 10 10 10 11 11 11 12 12 12 12 12 12 13 13 13 13
18 17 16 15 14 14 13 13 12 12 12 12 12 12 12 12 12 11 11 11 11 11 11 11 12 12 12 12 12 12 12 13 13 13 13 14 14 14 14 14 14 14 15
20 18 18 17 16 15 15 14 14 14 14 13 13 13 13 13 13 13 13 13 13 13 13 13 13 13 14 14 14 14 14 14 14 15 15 15 15 16 16 16 16 16 16
21 20 19 18 18 17 16 16 16 15 15 14 14 14 14 14 14 14 14 14 15 15 15 15 15 15 15 15 15 15 15 15 16 16 16 17 17 17 17 17 18 18 18
22 21 20 19 19 18 17 17 17 16 16 16 16 16 16 16 16 16 16 16 17 17 17 17 17 17 17 17 17 17 17 17 18 18 18 18 19 19 19 19 19 20 20
23 22 21 20 20 19 18 18 18 17 17 17 17 18 18 18 18 18 18 19 19 19 19 19 19 20 20 20 20 20 19 19 19 19 20 20 20 20 20 20 21 21 21
23 23 22 22 21 20 20 20 19 19 19 19 19 19 20 20 20 20 20 20 20 21 21 21 21 21 22 22 22 22 22 22 21 21 21 21 22 22 22 22 22 22 22
24 23 23 23 22 22 22 22 22 22 21 21 21 22 22 22 22 22 21 21 21 22 22 23 23 23 23 23 23 23 23 23 23 22 22 22 23 23 24 24 24 24 24
25 25 24 24 24 23 23 24 23 23 23 23 23 23 23 23 23 23 23 23 23 24 24 24 24 25 25 25 25 25 25 25 25 25 25 25 24 24 25 25 26 26 26
26 26 25 24 24 24 24 24 24 24 24 24 24 24 24 25 25 25 25 25 25 25 25 25 26 26 26 27 27 27 27 27 27 27 27 27 27 27 27 27 27 27 27
27 26 26 25 24 24 25 24 24 25 25 25 25 25 25 26 26 26 26 26 26 26 26 26 26 27 27 27 28 28 28 29 29 29 29 29 29 29 29 29 29 29 29
28 27 26 26 26 25 25 25 25 25 25 26 26 26 26 26 27 27 27 27 27 27 28 28 28 29 29 29 29 30 31 31 31 31 31 31 31 32 32 32 31 31 31
27 27 28 27 27 26 26 26 26 26 26 26 26 27 27 27 28 28 28 28 29 29 30 30 31 30 31 31 31 31 32 32 32 32 32 32 33 33 34 34 34 33 33
29 28 27 27 28 28 28 28 27 26 27 27 28 28 28 28 28 29 29 30 31 31 32 32 32 32 33 33 33 32 32 33 33 33 33 33 34 34 35 35 36 36 36
28 28 28 28 28 29 29 28 28 27 28 28 28 29 29 29 29 30 30 31 32 32 33 33 33 34 34 34 34 33 33 34 34 35 36 36 35 36 36 36 37 37 37
28 28 28 28 29 29 29 28 29 29 29 29 29 29 29 29 29 31 31 31 32 33 33 34 34 35 35 35 35 36 36 36 36 37 38 38 37 37 37 38 38 38 38
28 28 28 28 28 28 28 28 28 29 29 29 29 29 30 30 30 31 32 32 32 32 33 33 34 35 36 36 37 37 37 38 38 38 39 39 39 39 39 39 39 40 40
28 28 28 29 29 28 28 28 29 29 29 29 29 30 30 30 31 31 31 32 32 32 33 33 33 34 35 36 37 38 38 39 39 39 39 40 40 40 40 40 40 41 41
28 28 29 29 29 29 29 29 29 29 29 28 29 30 31 31 31 31 31 32 32 32 33 33 35 35 36 36 37 38 38 39 40 40 39 39 40 40 40 41 41 41 42
28 28 29 29 29 30 30 30 30 31 31 30 30 31 31 31 32 32 32 32 32 33 34 34 35 35 35 36 37 37 38 39 39 40 40 40 41 41 40 40 40 41 42
28 28 29 30 30 30 31 32 31 31 31 32 32 32 33 33 32 32 31 32 32 33 34 34 35 35 36 36 37 37 37 38 39 40 40 40 40 41 41 41 42 42 42
28 29 29 30 31 31 32 32 32 32 32 33 33 32 32 33 33 33 33 32 33 33 34 35 35 36 36 37 37 37 38 38 39 39 41 41 41 42 42 42 42 42 42
29 30 31 31 31 32 32 33 33 33 33 33 33 34 34 33 33 33 34 33 34 34 35 35 36 37 37 37 38 38 39 39 39 39 40 41 41 41 41 41 41 41 41
30 30 31 32 32 33 34 34 34 34 34 34 34 35 34 34 35 34 34 34 34 35 36 37 38 38 38 38 38 39 39 39 39 39 39 40 40 40 39 39 39 40 41
30 31 31 32 33 33 34 34 34 35 35 35 34 34 35 35 36 36 36 35 35 35 36 37 38 39 39 39 40 39 39 39 38 38 38 38 38 38 39 39 39 40 40
Wind_Direction
230 230 232 233 235 236 239 243 247 252 257 260 263 266 268 270 272 275 277 277 276 275 275 275 276 277 277 276 276 276 275 273 270 270 270 271 271 271 271 271 272 273 274
228 230 233 236 238 240 242 245 249 253 258 261 263 265 266 268 269 273 276 277 276 275 276 275 275 277 278 278 277 277 276 275 272 271 270 269 269 270 272 273 273 273 275
230 231 235 238 241 243 245 247 250 253 258 261 263 265 267 268 269 270 272 274 275 276 276 275 274 275 276 277 277 277 276 275 274 273 272 271 271 271 272 273 274 274 274
233 234 237 240 244 247 249 249 251 254 257 260 262 264 266 268 269 270 272 273 273 274 275 274 275 275 276 277 276 276 276 275 275 274 273 273 273 273 273 273 274 275 275
234 236 238 242 245 248 250 251 252 253 256 258 260 263 266 268 269 271 272 272 273 274 274 274 274 275 276 277 276 275 275 276 275 274 274 274 274 274 274 274 274 274 275
233 235 237 241 244 246 248 250 251 252 255 257 261 264 267 269 270 271 272 273 274 274 274 274 274 275 275 275 275 275 275 275 274 274 274 275 274 274 274 274 275 275 275
233 234 236 239 242 245 247 250 252 253 255 258 262 265 267 270 272 273 273 274 274 274 274 274 275 275 275 275 275 275 275 274 275 274 274 274 274 274 274 275 275 275 275
234 235 237 239 242 245 249 251 253 255 257 260 263 266 268 270 272 274 274 274 274 274 275 276 276 276 276 276 276 275 274 275 275 274 274 274 273 274 274 274 275 275 275
237 236 237 241 243 246 249 252 254 256 258 261 264 266 268 271 272 273 274 274 275 275 276 277 277 277 277 277 276 275 275 275 275 275 275 275 275 274 274 274 274 274 275
238 239 239 242 244 247 250 252 254 257 259 261 263 266 269 270 271 272 273 274 275 276 277 277 277 276 276 276 276 275 275 274 274 275 275 275 275 275 275 275 275 274 274
237 239 241 244 246 248 251 253 256 259 261 263 265 267 268 270 271 272 273 275 276 276 277 277 277 277 276 276 275 275 274 274 274 275 275 275 275 275 275 275 275 274 274
236 238 241 245 246 249 253 256 258 260 262 265 266 268 269 270 271 273 274 275 276 276 276 276 276 277 277 276 275 274 274 274 274 275 275 274 274 274 274 275 275 275 275
236 239 242 245 247 250 254 258 259 261 263 266 267 268 270 271 272 273 273 274 275 276 276 277 278 277 276 276 275 274 274 274 275 275 275 274 273 274 274 274 274 274 274
237 240 243 246 249 252 255 259 261 262 264 265 266 268 270 272 272 273 274 275 275 276 276 277 278 278 277 276 276 275 275 274 274 275 275 274 274 273 273 272 272 272 273
240 242 246 250 254 256 258 260 262 263 264 265 267 269 270 271 272 274 276 277 277 276 276 277 278 277 277 277 276 276 276 275 274 274 274 274 274 274 273 273 273 273 273
241 244 248 252 255 257 260 263 264 264 264 265 267 269 270 272 273 274 275 277 278 278 278 278 277 277 276 276 276 276 276 276 276 275 274 274 274 274 274 274 274 273 273
244 246 248 252 256 259 260 262 264 265 265 266 267 269 270 272 274 275 276 278 279 279 278 278 277 277 277 276 275 275 276 276 276 276 275 274 274 274 275 274 274 273 273
246 247 249 253 256 259 260 262 264 265 266 266 267 269 271 272 275 276 278 278 279 280 279 280 279 278 277 277 276 276 276 275 275 276 275 273 273 273 274 274 273 273 273
245 248 251 253 257 260 262 263 264 265 266 267 268 269 272 273 274 276 277 279 279 280 281 280 281 281 281 280 278 277 276 276 275 276 276 274 273 273 272 273 273 273 272
246 249 252 254 257 260 262 264 264 265 267 268 268 270 272 274 274 276 278 280 280 280 281 281 281 282 281 280 279 278 277 276 276 276 276 275 273 272 272 273 273 274 273
249 252 255 255 257 260 262 263 264 265 266 267 269 271 272 274 274 275 277 279 280 280 281 282 282 282 282 281 281 280 279 278 277 275 276 275 273 272 273 274 274 275 274
252 255 258 259 260 261 262 262 264 265 266 267 270 272 272 273 275 276 276 277 279 281 282 283 284 283 283 283 283 281 280 279 277 275 276 276 275 274 274 275 276 276 275
254 256 258 260 261 261 261 262 263 265 267 268 271 272 273 273 273 274 275 277 278 280 281 283 284 284 285 284 283 283 282 280 277 276 276 275 276 276 275 275 276 276 276
255 256 258 260 260 260 260 262 263 265 267 269 271 272 273 273 273 274 275 277 278 281 282 283 283 284 285 285 285 284 283 281 279 278 277 277 276 276 276 275 275 276 276
257 259 259 260 259 260 261 262 264 265 267 269 271 272 273 274 275 276 277 279 281 282 283 284 284 284 285 285 285 285 284 282 281 280 279 278 277 278 278 278 276 276 276
258 260 260 260 260 261 262 263 264 266 267 269 271 273 274 275 276 277 278 279 281 283 284 285 285 284 285 285 285 285 284 283 282 282 281 280 279 278 278 279 277 277 277
Height
5872 5873 5875 5876 5877 5877 5878 5879 5879 5880 5880 5880 5881 5881 5881 5881 5881 5881 5881 5881 5881 5880 5880 5880 5880 5880 5879 5879 5879 5878 5878 5878 5877 5877 5877 5876 5876 5876 5875 5875 5874 5874 5873
5869 5871 5872 5873 5875 5876 5876 5877 5878 5878 5879 5879 5879 5879 5880 5880 5880 5880 5879 5879 5879 5879 5879 5879 5878 5878 5878 5877 5877 5877 5876 5876 5876 5875 5875 5875 5874 5874 5873 5873 5872 5872 5872
5866 5868 5870 5871 5872 5873 5874 5875 5876 5876 5877 5877 5877 5877 5878 5878 5878 5878 5878 5878 5878 5877 5877 5877 5876 5876 5876 5876 5875 5875 5874 5874 5873 5873 5873 5872 5872 5872 5871 5871 5870 5870 5869
5863 5865 5867 5868 5870 5871 5872 5873 5873 5874 5874 5875 5875 5875 5876 5876 5876 5876 5876 5876 5876 5875 5875 5875 5874 5874 5874 5873 5873 5872 5872 5871 5871 5871 5870 5870 5870 5869 5869 5868 5868 5867 5867
5860 5862 5863 5865 5866 5868 5869 5870 5870 5871 5872 5872 5873 5873 5873 5873 5873 5873 5873 5873 5873 5873 5873 5872 5872 5872 5871 5871 5870 5870 5869 5869 5868 5868 5867 5867 5867 5866 5866 5865 5865 5864 5864
5856 5858 5860 5861 5863 5864 5866 5867 5868 5868 5869 5870 5870 5870 5871 5871 5871 5871 5871 5870 5870 5870 5870 5869 5869 5869 5868 5868 5867 5867 5866 5866 5865 5865 5864 5864 5863 5863 5862 5862 5861 5861 5860
5852 5854 5856 5858 5859 5861 5862 5863 5864 5865 5866 5867 5867 5867 5868 5868 5868 5868 5867 5867 5867 5867 5866 5866 5866 5865 5865 5864 5864 5863 5863 5862 5862 5861 5861 5860 5860 5859 5859 5858 5858 5857 5857
5847 5850 5852 5854 5856 5857 5859 5860 5861 5862 5863 5863 5864 5864 5864 5864 5864 5864 5864 5864 5863 5863 5863 5862 5862 5861 5861 5861 5860 5859 5859 5858 5858 5857 5857 5856 5856 5855 5855 5854 5854 5853 5852
5843 5846 5848 5850 5852 5853 5855 5856 5857 5858 5859 5859 5860 5860 5860 5860 5860 5860 5860 5860 5859 5859 5859 5858 5858 5857 5857 5856 5856 5855 5855 5854 5853 5853 5852 5852 5851 5851 5850 5850 5849 5848 5848
5838 5841 5843 5845 5847 5849 5850 5851 5852 5853 5854 5855 5855 5855 5856 5856 5856 5856 5856 5855 5855 5855 5854 5853 5853 5852 5852 5851 5851 5850 5850 5849 5849 5848 5848 5847 5847 5846 5845 5845 5844 5843 5843
5834 5836 5838 5840 5842 5844 5845 5846 5847 5848 5849 5850 5850 5850 5851 5851 5851 5851 5851 5850 5850 5850 5849 5848 5848 5847 5846 5846 5845 5845 5844 5844 5843 5843 5842 5842 5841 5841 5840 5839 5839 5838 5837
5830 5832 5834 5835 5837 5839 5840 5841 5842 5843 5844 5844 5845 5845 5845 5846 5845 5845 5845 5845 5845 5844 5844 5843 5842 5842 5841 5840 5840 5839 5838 5838 5837 5837 5836 5836 5835 5835 5834 5833 5833 5832 5832
5825 5827 5829 5831 5833 5834 5835 5836 5837 5837 5838 5839 5839 5840 5840 5840 5840 5840 5839 5839 5839 5839 5838 5837 5836 5836 5835 5834 5833 5833 5832 5831 5831 5830 5830 5829 5829 5828 5827 5827 5826 5825 5825
5820 5822 5824 5826 5827 5829 5830 5831 5831 5832 5833 5833 5834 5834 5834 5834 5834 5834 5834 5833 5833 5832 5832 5831 5830 5829 5829 5828 5827 5826 5825 5824 5824 5823 5823 5822 5821 5821 5820 5819 5819 5818 5818
5815 5818 5819 5821 5823 5824 5825 5825 5826 5826 5827 5828 5828 5828 5828 5828 5828 5828 5828 5827 5827 5826 5825 5825 5824 5823 5822 5821 5820 5819 5818 5817 5817 5816 5815 5815 5814 5813 5812 5812 5811 5811 5810
5810 5813 5815 5816 5817 5818 5819 5819 5820 5820 5821 5821 5822 5822 5822 5822 5822 5822 5821 5820 5820 5819 5818 5817 5816 5815 5814 5814 5813 5812 5811 5810 5809 5808 5808 5807 5806 5805 5805 5804 5803 5802 5802
5805 5807 5809 5810 5811 5812 5812 5813 5813 5814 5814 5815 5815 5815 5815 5815 5815 5815 5814 5814 5813 5811 5811 5810 5809 5808 5807 5806 5805 5804 5803 5802 5801 5800 5799 5798 5798 5797 5796 5795 5794 5794 5793
5800 5802 5803 5805 5806 5806 5806 5807 5807 5808 5808 5808 5809 5809 5809 5809 5808 5808 5807 5806 5805 5804 5803 5802 5801 5800 5798 5797 5796 5795 5794 5793 5792 5791 5790 5789 5789 5788 5787 5786 5785 5784 5784
5795 5796 5798 5799 5800 5800 5800 5801 5801 5802 5802 5802 5802 5802 5802 5802 5801 5801 5800 5799 5798 5797 5795 5794 5793 5791 5790 5788 5787 5786 5785 5784 5783 5782 5781 5780 5779 5778 5777 5776 5775 5775 5774
5789 5790 5792 5793 5794 5794 5794 5795 5795 5796 5796 5796 5796 5795 5795 5795 5794 5793 5793 5792 5790 5789 5788 5786 5785 5783 5781 5779 5778 5777 5776 5774 5774 5773 5771 5770 5769 5768 5767 5766 5766 5764 5763
5784 5785 5785 5787 5788 5788 5788 5789 5789 5789 5789 5789 5788 5788 5788 5787 5786 5786 5785 5784 5782 5781 5779 5778 5776 5774 5772 5770 5769 5767 5766 5765 5764 5763 5761 5760 5759 5758 5757 5756 5755 5754 5752
5778 5779 5779 5780 5781 5782 5782 5782 5782 5782 5782 5782 5781 5781 5781 5780 5779 5777 5777 5776 5774 5773 5771 5769 5767 5765 5763 5761 5760 5758 5757 5756 5753 5752 5751 5750 5749 5748 5747 5746 5744 5743 5741
5771 5772 5773 5774 5774 5775 5775 5775 5775 5775 5775 5775 5774 5773 5773 5772 5771 5769 5768 5767 5766 5765 5763 5761 5759 5757 5755 5752 5750 5749 5747 5746 5744 5743 5741 5739 5738 5737 5736 5735 5733 5732 5730
5765 5765 5766 5767 5767 5767 5767 5767 5768 5767 5767 5767 5767 5766 5765 5764 5763 5762 5761 5759 5758 5756 5754 5752 5750 5748 5746 5743 5741 5739 5738 5736 5734 5733 5732 5729 5728 5727 5726 5724 5723 5721 5719
5757 5758 5758 5759 5759 5759 5759 5759 5759 5759 5759 5759 5758 5758 5757 5756 5755 5753 5752 5751 5749 5747 5745 5743 5741 5739 5736 5734 5732 5730 5728 5726 5724 5723 5722 5720 5718 5717 5715 5714 5712 5711 5709
5750 5751 5751 5751 5751 5751 5751 5751 5751 5751 5751 5751 5750 5749 5748 5747 5746 5745 5744 5742 5741 5739 5737 5735 5732 5730 5727 5725 5723 5720 5718 5716 5715 5713 5712 5711 5709 5707 5706 5704 5702 5700 5698